This is the latest recevied weather packets stored in our database for station/object IW1CBG-3. If no packets are shown the sender has not sent any weather packets the latest 10 day(s).
| Time | Temp. | Humidity | Pressure | Rain* | Wind** | Luminosity | Snow |
|---|---|---|---|---|---|---|---|
| 1777903067 | 14.44° C | 78% | 1028.3 hPa | 0 mm | - | - | - |
| 1777902468 | 14.44° C | 78% | 1028.4 hPa | 0 mm | - | - | - |
| 1777901868 | 14.44° C | 78% | 1028.5 hPa | 0 mm | - | - | - |
| 1777901268 | 14.44° C | 79% | 1028.7 hPa | 0 mm | - | - | - |
| 1777900668 | 14.44° C | 78% | 1028.6 hPa | 0 mm | - | - | - |
| 1777900068 | 14.44° C | 79% | 1028.5 hPa | 0 mm | - | - | - |
| 1777899467 | 14.44° C | 78% | 1028.6 hPa | 0 mm | - | - | - |
| 1777898268 | 14.44° C | 79% | 1028.6 hPa | 0 mm | - | - | - |
| 1777897668 | 13.89° C | 80% | 1028.8 hPa | 0 mm | - | - | - |
| 1777897068 | 13.89° C | 81% | 1029.1 hPa | 0 mm | - | - | - |
| 1777896468 | 13.89° C | 80% | 1028.7 hPa | 0 mm | - | - | - |
| 1777895868 | 14.44° C | 79% | 1028.7 hPa | 0 mm | - | - | - |
| 1777895269 | 15° C | 77% | 1028.7 hPa | 0 mm | - | - | - |
| 1777894668 | 15° C | 72% | 1028.7 hPa | 0 mm | - | - | - |
| 1777894068 | 14.44° C | 78% | 1028.8 hPa | 0 mm | - | - | - |
| 1777893468 | 13.89° C | 80% | 1029 hPa | 0 mm | - | - | - |
| 1777892867 | 14.44° C | 78% | 1029 hPa | 0 mm | - | - | - |
| 1777892267 | 14.44° C | 74% | 1028.9 hPa | 0 mm | - | - | - |
| 1777891668 | 15° C | 74% | 1029 hPa | 0 mm | - | - | - |
| 1777891068 | 14.44° C | 73% | 1029.2 hPa | 0 mm | - | - | - |
| 1777890468 | 14.44° C | 75% | 1029.2 hPa | 0 mm | - | - | - |
| 1777889868 | 13.89° C | 78% | 1029.4 hPa | 0 mm | - | - | - |
| 1777889268 | 13.89° C | 77% | 1029.8 hPa | 0 mm | - | - | - |
| 1777888667 | 13.89° C | 77% | 1029.5 hPa | 0 mm | - | - | - |
| 1777888067 | 13.89° C | 77% | 1029.6 hPa | 0 mm | - | - | - |
* Rain latest hour (hover to see other rain measurements)
** Current wind speed in m/s (hover to see current wind gust speed)